Theta_e
333 335 334 333 334 334 333 333 333 332 331 330 328 326 320 318 318 319 319 319 319 319 319 318 317 316 316 315 314 313 313 313 313 312 312 312 311 311 310 309 307 306
334 335 335 334 334 334 333 334 333 331 330 329 329 326 321 319 319 320 319 319 319 319 318 317 316 316 315 313 313 313 313 313 312 312 311 311 311 310 308 306 304 302
335 335 335 334 334 334 334 334 332 331 330 329 329 327 322 319 320 320 319 319 319 318 317 316 315 314 313 313 313 313 312 311 310 310 310 311 310 308 304 302 300 299
334 334 334 333 334 334 334 333 331 330 330 329 329 326 321 319 320 319 319 318 318 317 316 315 314 314 313 313 313 312 310 308 308 309 310 309 307 303 300 299 298 298
334 334 334 333 333 334 333 333 331 330 330 329 329 325 320 319 319 319 318 317 316 316 315 314 314 313 313 313 312 310 306 304 306 307 307 305 302 299 298 297 297 297
334 334 334 333 333 334 333 332 331 330 330 329 328 324 320 319 319 318 318 316 316 315 314 314 313 313 313 312 311 308 303 301 303 304 303 300 298 298 297 297 297 297
334 334 333 333 334 333 332 331 330 330 329 328 327 323 320 319 319 318 317 316 315 314 314 313 313 312 311 311 311 306 300 299 300 300 299 298 297 298 297 297 297 297
334 333 332 333 333 333 332 331 330 329 328 327 326 323 320 319 319 318 317 316 315 314 314 313 312 312 311 310 309 304 299 297 298 298 297 297 297 298 298 298 297 297
333 333 332 333 333 332 331 330 329 329 327 326 326 323 320 319 319 317 317 316 315 314 314 313 313 312 311 310 308 303 298 296 297 297 297 297 297 298 298 298 297 297
333 333 332 332 332 331 330 329 328 328 327 325 325 323 321 319 318 317 317 317 316 315 314 314 313 313 312 309 306 301 297 296 297 296 297 297 298 298 298 298 298 297
333 332 332 331 331 330 329 328 328 327 326 325 324 323 320 319 318 317 317 317 317 316 315 314 314 313 312 309 304 300 296 296 296 296 297 297 298 298 298 298 298 298
332 332 332 331 330 330 328 327 327 326 325 325 324 322 320 319 318 317 317 317 317 316 315 315 314 314 312 308 303 299 296 296 296 296 297 297 298 298 297 298 298 298
332 332 331 331 330 329 327 326 326 325 325 324 323 321 319 319 318 318 317 317 317 316 315 315 314 314 312 307 301 298 296 295 296 296 296 297 298 297 297 298 299 298
332 332 330 330 329 327 326 326 325 325 324 323 322 320 319 318 318 318 317 317 316 315 315 315 314 314 312 305 300 297 296 295 296 296 297 297 298 297 297 298 299 299
332 331 330 329 328 326 326 325 324 324 323 323 321 320 319 318 318 318 318 317 316 315 315 315 314 314 311 303 298 296 296 295 296 296 296 297 298 298 297 298 299 299
332 331 329 328 326 326 325 324 323 322 322 321 320 319 319 318 318 318 317 317 316 315 316 314 313 313 309 301 296 296 295 296 296 296 296 297 298 298 297 298 298 299
332 330 329 327 326 325 324 323 322 321 321 321 320 319 319 318 318 318 317 317 316 316 315 313 313 312 306 298 296 296 296 296 296 296 296 297 298 298 298 298 298 298
331 330 328 326 325 324 323 322 321 321 320 320 319 319 318 318 318 317 317 317 316 316 314 313 312 310 303 297 296 296 295 296 296 296 296 297 298 298 298 298 298 298
331 329 328 326 324 323 323 321 320 320 320 319 319 318 318 318 317 317 317 317 316 315 313 312 311 307 300 296 296 296 295 296 296 296 296 296 297 297 297 297 297 298
330 329 328 326 324 323 322 321 319 319 319 319 318 318 317 317 317 317 317 316 315 313 312 311 309 303 297 296 296 295 296 296 296 296 296 296 296 296 296 297 297 297
330 329 327 325 324 323 321 320 319 318 318 318 318 317 317 317 317 317 316 314 313 312 310 308 304 299 296 296 296 295 296 296 296 296 296 295 295 295 295 296 296 297
329 328 326 324 323 321 319 319 318 317 317 317 317 317 317 317 316 315 313 312 312 310 307 303 299 297 296 296 295 295 296 296 296 296 295 296 296 295 295 295 295 296
328 327 325 323 321 319 318 318 318 317 317 317 317 317 316 316 314 313 312 311 310 306 302 298 297 296 296 296 295 296 295 296 296 296 295 295 295 295 295 295 295 295
327 325 323 322 320 319 318 318 317 317 317 317 317 316 316 315 313 312 310 309 306 302 298 297 296 296 296 295 295 295 295 295 295 295 295 295 295 295 295 295 295 295
326 324 323 322 321 319 318 317 317 316 317 316 316 315 315 314 312 310 309 305 301 298 297 296 296 296 296 295 295 295 295 295 295 295 295 295 295 295 295 295 294 295
326 324 323 321 320 319 318 317 316 316 316 316 315 315 314 313 311 308 306 302 299 297 296 296 295 295 296 295 295 295 295 295 295 295 295 295 295 295 295 295 294 294
Wind_Speed
17 16 16 16 19 20 17 14 12 9 8 7 6 7 6 4 3 3 3 2 1 2 2 3 5 6 7 7 7 8 9 9 9 8 8 9 10 11 11 12 12 13
17 17 16 16 18 19 17 14 11 9 8 7 7 8 5 2 4 4 3 2 2 2 2 4 5 6 6 6 7 8 9 9 8 7 8 8 9 10 11 12 12 12
18 18 17 16 17 19 16 14 12 10 9 9 8 7 3 4 6 5 4 3 2 2 2 3 4 4 5 6 7 9 9 8 7 6 7 7 8 10 11 12 12 12
19 18 16 16 17 18 16 14 13 11 10 10 7 5 4 6 7 6 4 3 2 2 2 2 3 3 5 7 8 9 8 7 6 6 6 7 8 10 11 12 12 11
18 18 17 17 18 18 17 15 13 11 10 9 6 4 6 7 7 6 4 2 1 1 1 2 3 4 6 7 9 8 7 6 6 6 6 7 8 10 11 12 11 12
18 19 19 19 18 18 17 15 13 11 10 8 6 5 8 8 7 6 3 2 1 1 2 3 4 5 6 8 9 9 7 6 5 5 6 7 8 10 11 12 12 12
18 19 19 19 19 18 16 14 12 11 10 8 6 7 9 9 7 5 3 1 1 2 3 4 4 5 7 9 9 9 7 6 5 5 6 7 8 10 12 12 12 13
18 19 19 19 19 18 16 14 13 11 10 9 7 8 10 9 7 5 3 1 2 3 3 3 4 6 8 9 10 9 7 5 4 4 6 7 7 10 12 12 12 13
18 18 19 20 19 18 16 15 13 12 11 9 8 10 11 10 7 5 3 2 2 2 3 3 4 6 8 9 9 8 6 4 4 4 5 6 7 10 12 11 11 13
19 19 20 20 19 17 16 15 14 13 12 10 10 11 12 11 8 6 3 2 2 1 2 2 4 5 7 8 8 7 5 4 4 5 5 6 8 10 11 11 12 14
20 20 20 20 18 17 17 16 15 13 12 12 11 12 13 12 10 7 5 3 2 1 0 1 3 4 6 7 7 6 5 4 4 4 5 6 8 9 10 10 12 14
21 21 21 20 19 18 17 16 15 14 14 13 13 14 14 13 10 8 6 4 3 2 1 2 2 3 5 6 5 4 4 4 4 4 5 6 7 8 9 10 12 14
22 21 21 20 19 18 17 17 16 15 15 15 15 16 15 13 11 9 7 5 4 3 3 3 2 3 4 5 3 3 3 3 4 4 5 5 6 7 8 10 12 13
22 22 21 20 19 18 17 17 16 16 16 17 18 17 16 13 11 9 7 6 5 4 4 4 3 3 4 3 2 1 2 3 3 4 4 5 6 7 9 10 11 12
23 22 21 20 19 19 17 16 16 16 17 19 20 19 17 14 12 10 8 7 6 6 6 5 4 4 3 2 1 2 2 2 3 3 4 5 6 7 9 10 11 11
23 22 21 20 20 18 16 15 16 17 19 21 21 19 17 15 13 11 9 8 7 7 7 6 6 5 4 2 2 3 3 2 3 4 4 5 5 7 8 9 10 9
24 23 21 21 20 18 16 16 18 19 20 21 21 19 17 16 14 12 11 9 9 8 8 7 7 6 4 3 3 3 3 3 3 4 5 5 5 6 7 8 9 9
24 23 21 21 20 17 16 17 19 21 22 22 21 19 18 16 15 13 12 11 10 9 9 8 8 6 5 4 4 4 4 4 4 4 5 5 6 6 7 7 8 8
25 23 21 21 20 16 16 19 21 22 23 22 20 19 18 16 15 14 12 12 11 10 9 9 8 7 6 5 5 5 5 5 5 4 5 5 5 6 6 6 6 6
26 24 22 22 20 17 18 21 23 24 23 21 20 19 18 17 15 14 13 13 12 11 10 9 8 7 7 7 6 7 7 6 5 5 5 5 5 5 5 5 5 5
26 24 23 22 20 19 21 24 25 25 23 21 19 18 17 16 15 14 14 13 13 12 10 9 9 8 8 8 8 8 8 7 6 5 5 4 4 4 4 4 3 3
26 24 23 22 20 20 23 27 26 24 23 21 19 18 17 16 14 14 14 14 13 12 11 10 9 9 10 9 9 9 8 7 6 5 5 4 4 4 3 3 3 3
25 23 22 20 18 20 24 25 23 22 21 19 19 18 16 15 14 14 14 14 13 12 11 9 9 11 11 10 10 9 8 7 6 5 5 4 3 3 3 3 3 3
25 24 23 18 16 19 23 23 21 20 19 18 17 15 14 13 14 15 15 14 12 11 10 9 10 12 12 12 11 9 8 6 6 5 4 4 3 3 3 3 3 3
26 25 23 18 15 19 23 24 23 21 19 18 16 14 12 12 15 16 15 14 13 11 10 9 10 13 13 12 11 10 8 6 5 5 4 3 3 3 3 3 3 3
27 25 22 18 19 23 25 25 24 22 20 19 17 14 11 12 15 16 16 15 14 12 11 10 11 13 13 13 11 9 8 7 5 5 4 3 3 3 2 2 3 3
Wind_Direction
225 223 217 217 223 228 232 235 238 244 249 261 272 273 277 277 228 206 209 216 251 285 322 345 356 358 357 360 5 6 3 355 347 349 357 357 359 4 5 5 7 5
222 218 213 212 218 224 229 234 240 245 252 261 267 273 283 245 183 184 201 221 241 279 333 353 358 360 354 357 4 2 358 351 347 355 1 357 359 3 4 6 7 6
218 215 210 208 216 224 227 230 235 239 249 259 266 277 269 184 178 187 209 229 255 302 343 358 358 356 351 357 7 4 358 351 352 6 4 357 0 2 5 11 13 15
213 211 207 208 217 225 229 230 233 236 247 258 269 275 223 183 185 201 222 244 273 311 348 5 9 1 355 7 15 9 1 357 6 20 9 359 2 6 15 23 25 29
207 206 205 210 218 224 228 231 235 238 247 257 272 260 208 191 195 211 232 257 278 333 35 46 38 18 9 20 24 15 9 13 26 29 11 4 11 19 31 36 36 40
201 202 204 212 218 222 227 230 232 238 247 259 268 238 205 197 203 216 235 256 272 64 76 67 48 28 22 28 26 19 20 28 37 32 12 14 25 35 44 45 45 49
201 202 206 212 217 221 225 228 230 236 245 253 253 228 208 203 207 216 229 230 123 99 88 70 53 37 30 30 25 21 26 35 42 32 20 28 38 46 52 52 51 56
204 206 210 213 214 218 222 226 231 237 241 245 243 225 212 207 211 216 213 174 127 108 97 75 55 41 31 28 27 24 27 42 53 42 34 39 46 53 57 57 58 63
208 211 213 213 212 216 220 226 233 236 237 241 239 226 214 206 205 208 203 167 141 123 107 75 51 40 30 26 27 25 29 55 68 56 46 47 54 59 62 62 63 67
211 213 213 212 212 217 223 229 234 235 237 239 236 226 216 206 198 195 194 181 172 155 113 62 41 35 25 22 26 29 39 66 73 64 57 55 58 63 65 67 68 70
211 212 212 212 214 219 225 230 234 237 239 240 236 227 217 207 198 191 190 200 220 211 106 12 24 26 19 19 26 36 52 72 77 72 68 64 62 65 70 73 73 75
209 211 212 213 217 223 226 230 235 239 240 238 233 226 217 209 200 194 193 208 231 231 250 303 343 8 10 17 28 40 61 80 88 85 79 72 67 69 76 79 79 79
209 212 214 215 221 225 227 231 236 239 237 232 226 220 216 212 204 197 196 208 233 239 246 274 301 338 359 14 34 50 68 93 102 95 87 80 76 79 83 84 82 79
211 213 215 218 223 226 230 234 238 235 228 222 218 215 213 212 207 202 202 212 229 238 243 261 277 306 340 3 55 92 103 114 111 101 94 91 89 90 92 89 84 79
213 214 216 220 224 228 234 240 238 229 219 213 212 211 208 207 206 206 211 221 231 236 240 252 264 283 312 329 134 150 158 141 125 118 109 102 98 97 98 93 85 79
216 217 219 222 226 232 239 240 231 220 212 208 208 208 206 205 206 209 216 226 235 239 241 248 254 267 284 262 167 164 177 163 142 134 123 116 112 105 102 96 87 81
217 218 221 224 229 236 238 231 222 214 208 205 205 205 204 205 209 213 218 227 236 240 243 247 248 254 261 233 183 172 181 173 154 141 133 129 126 115 106 98 90 84
218 220 222 226 232 237 234 224 216 211 206 204 204 203 203 206 212 216 222 230 235 236 236 239 243 247 245 223 194 182 183 176 159 149 145 141 134 122 108 96 88 85
221 223 224 228 233 238 233 223 215 210 206 203 202 202 205 209 213 217 226 233 232 229 231 233 238 240 234 219 197 182 182 178 166 157 153 148 137 121 105 93 86 84
221 225 228 231 235 239 233 222 214 207 203 202 201 203 207 212 217 223 229 230 225 223 226 230 234 234 228 216 195 180 178 176 169 163 159 151 135 117 103 93 86 81
222 225 228 232 237 239 227 216 211 205 200 200 201 205 212 216 223 229 226 221 218 218 222 226 227 227 222 209 190 179 176 172 169 169 165 152 134 119 108 100 93 87
222 223 226 231 238 235 219 210 208 203 200 200 202 206 214 218 221 222 217 214 215 216 219 221 222 221 215 201 184 177 174 169 168 172 167 155 139 126 118 115 115 112
223 221 221 227 232 223 212 208 206 203 202 204 206 209 213 214 213 210 210 213 217 216 215 216 219 216 205 190 179 174 171 168 169 171 166 157 148 138 133 128 124 125
223 217 217 224 224 213 209 209 209 208 208 208 211 215 217 214 210 207 207 210 212 214 213 212 217 213 196 182 175 170 167 169 172 170 163 159 157 152 147 140 129 131
221 218 221 228 221 209 208 210 209 209 211 211 211 217 221 218 212 208 207 205 202 206 207 206 212 209 192 178 174 170 167 170 172 168 162 166 169 167 164 155 143 146
223 224 227 225 212 205 205 206 205 206 208 209 209 211 217 219 213 208 207 205 201 201 202 200 207 207 192 177 172 172 170 170 172 170 166 171 181 182 183 175 169 170